Flag for Austria Weather past 2 weeks in Klagenfurt, Carinthia, Austria

Now
48 °F

Overcast.


Feels Like: 46 °F
Forecast: 47 / 66 °F
Wind: 5 mph from Northwest

Location: Klagenfurt-Flughafen

Current Time: Apr 26, 2015 at 5:21:05 AM

Latest Report: Apr 26, 2015 at 4:50 AM


Visibility: N/A

Pressure: 29.89 "Hg

Humidity: 82%

Dew point: 43 °F

Location of KlagenfurtLocation

Historic Weather in Klagenfurt — Graph

°F

Klagenfurt temperature yesterday

Maximum temperature yesterday: 72 °F (at 2:50 PM)
Minimum temperature yesterday: 39 °F (at 5:20 AM)
Average temperature yesterday: 55 °F

Past Weeks' High & Low Weather Summary

 TemperatureHumidityPressure
High77 °F (Apr 16, 2:50 PM)100% (Apr 12, 1:50 AM)30.45 "Hg (Apr 12, 1:50 AM)
Low30 °F (Apr 19, 5:20 AM)16% (Apr 21, 2:50 PM)29.86 "Hg (Apr 17, 5:20 PM)
Average55 °F57%30.12 "Hg
* Reported Apr 11 3:20 AM — Apr 26 3:50 AM, Klagenfurt, Weather by CustomWeather, © 2015

Note: Actual official high and low records may vary slightly from our data, if they occured in-between our weather recording intervals... More about our weather records

Advertising

Klagenfurt weather history for previous 24 hours

 ConditionsComfort  
Time TempWeatherWind HumidityBarometerVisibility
3:50 AM
Sun, Apr 26
48 °FCool.7 mph82%29.89 "HgN/A
3:20 AM50 °FCool.6 mph76%29.89 "HgN/A
2:50 AM50 °FCool.3 mph76%29.89 "HgN/A
2:20 AM52 °FClear.3 mph77%29.89 "Hg10 mi
1:50 AM54 °FPassing clouds.3 mph72%29.89 "HgN/A
1:20 AM55 °FClear.6 mph67%29.89 "Hg10 mi
12:50 AM57 °FPassing clouds.5 mph63%29.92 "HgN/A
12:20 AM59 °FOvercast.6 mph59%29.92 "HgN/A
11:50 PM
Sat, Apr 25
59 °FPassing clouds.6 mph59%29.92 "HgN/A
10:50 PM59 °FPassing clouds.5 mph59%29.92 "HgN/A
10:20 PM59 °FPassing clouds.7 mph59%29.92 "HgN/A
9:50 PM59 °FPassing clouds.6 mph59%29.92 "HgN/A
9:20 PM59 °FPartly cloudy.6 mph59%29.92 "HgN/A
8:50 PM59 °FBroken clouds.7 mph59%29.92 "HgN/A
8:20 PM61 °FBroken clouds.8 mph52%29.89 "HgN/A
7:50 PM63 °FBroken clouds.9 mph49%29.89 "HgN/A
7:20 PM63 °FBroken clouds.9 mph49%29.89 "HgN/A
6:50 PM64 °FBroken clouds.7 mph46%29.89 "HgN/A
6:20 PM64 °FBroken clouds.8 mph46%29.89 "HgN/A
5:50 PM66 °FPartly sunny.8 mph43%29.89 "HgN/A
5:20 PM68 °FScattered clouds.12 mph40%29.89 "HgN/A
4:50 PM68 °FScattered clouds.12 mph40%29.89 "HgN/A
4:20 PM70 °FScattered clouds.9 mph40%29.89 "HgN/A
3:50 PM70 °FScattered clouds.10 mph40%29.89 "HgN/A
3:20 PM70 °FScattered clouds.12 mph38%29.89 "HgN/A
2:50 PM72 °FScattered clouds.8 mph38%29.89 "HgN/A
2:20 PM70 °FScattered clouds.7 mph40%29.92 "HgN/A
1:50 PM70 °FScattered clouds.8 mph40%29.92 "HgN/A
1:20 PM68 °FScattered clouds.2 mph43%29.95 "HgN/A
12:50 PM68 °FScattered clouds.3 mph43%29.95 "HgN/A
12:20 PM64 °FScattered clouds.2 mph49%29.98 "HgN/A
11:50 AM63 °FScattered clouds.5 mph49%29.98 "HgN/A
11:20 AM61 °FScattered clouds.3 mph52%30.01 "HgN/A
10:50 AM59 °FScattered clouds.3 mph55%30.01 "HgN/A
10:20 AM57 °FScattered clouds.3 mph59%30.01 "HgN/A
9:50 AM54 °FScattered clouds.2 mph67%30.04 "HgN/A
9:20 AM52 °FSunny.2 mph72%30.04 "Hg10 mi
8:50 AM50 °FSunny.2 mph76%30.04 "Hg10 mi
8:20 AM48 °FPassing clouds.3 mph76%30.04 "HgN/A
7:50 AM43 °FPassing clouds.5 mph87%30.04 "HgN/A
7:20 AM41 °FPassing clouds.3 mph93%30.04 "HgN/A
6:50 AM39 °FClear.3 mph93%30.04 "Hg10 mi
6:20 AM39 °FClear.3 mph93%30.04 "Hg10 mi
5:50 AM39 °FClear.3 mph93%30.04 "Hg10 mi
5:20 AM39 °FChilly.3 mph93%30.04 "HgN/A
Weather by CustomWeather, © 2015

See weather overviewHow to use our weather pages